Regional Weather Roundup
Issued by NWS San Angelo, TX

Home | Current Version | Previous Version | Text Only | Print | Product List | Glossary On
Versions: 1 2 3 4 5 6 7 8 9 10 11 12 13 14 15 16 17 18 19 20 21 22 23 24 25 26 27 28 29 30 31 32 33 34 35 36 37 38 39 40 41 42 43 44 45 46 47 48 49 50
000
ASUS44 KSJT 040510
RWRSJT
WEST CENTRAL TEXAS REGIONAL WEATHER ROUNDUP
NATIONAL WEATHER SERVICE SAN ANGELO TX
1100 PM CST TUE MAR 03 2015

NOTE: "FAIR" INDICATES FEW OR NO CLOUDS BELOW 12,000 FEET WITH NO
SIGNIFICANT WEATHER AND/OR OBSTRUCTIONS TO VISIBILITY.

TXZ049-054-064>066-071>073-076>078-098-099-113-114-127-128-139-140-
154-155-168>170-040600
...LOCATIONS ACROSS WEST CENTRAL TEXAS...

CITY           SKY/WX    TMP DP  RH WIND       PRES   REMARKS
SAN ANGELO     MOCLDY    56  51  84 W3        29.86S
ABILENE        CLOUDY    53  48  83 CALM      29.87R
DYESS AFB      CLOUDY    50  47  90 E2        29.85S
JUNCTION       CLOUDY    57  53  86 S5        29.87S
SWEETWATER     CLOUDY    57  51  80 S7        29.90S
BROWNWOOD      CLOUDY    57  55  94 S8        29.86S
COLEMAN        CLOUDY    53  53  99 CALM      29.87S
SONORA         CLOUDY    55  52  88 CALM      29.93R
OZONA          FAIR      52  46  82 CALM      29.91R
BRADY          CLOUDY    55  55 100 S8        29.86R
$$

TEXAS PANHANDLE/OKLAHOMA PANHANDLE

CITY           SKY/WX    TMP DP  RH WIND       PRES   REMARKS
AMARILLO       CLOUDY    38  36  92 NE12      29.88R WCI  30
BORGER         CLOUDY    39  31  72 NE13      29.90R WCI  31
CANADIAN       CLOUDY    41  33  75 NE7       29.93R WCI  36
DALHART        FRZ RAIN  33  30  88 NE17      29.91R FOG     WCI  22
DUMAS          CLOUDY    32  29  90 NE16      29.90R WCI  21
GUYMON         NOT AVBL
HEREFORD       CLOUDY    49  44  83 S9        29.83R
PAMPA          CLOUDY    37  33  87 NE14      29.89R WCI  28
PERRYTON         N/A     33  26  75 NE15      29.94S WCI  23
$$

SOUTHERN PANHANDLE/SOUTH PLAINS/ROLLING PLAINS

CITY           SKY/WX    TMP DP  RH WIND       PRES   REMARKS
LUBBOCK        CLOUDY    53  43  68 S12       29.84S
SNYDER         CLOUDY    49  47  91 SE6       29.87F
CHILDRESS      PTCLDY    48  45  89 E8        29.84F
SEMINOLE       DRIZZLE   52  46  82 S8        29.89R
$$

PERMIAN BASIN

CITY           SKY/WX    TMP DP  RH WIND       PRES   REMARKS
MIDLAND        CLOUDY    51  47  86 N5        29.86S
ODESSA         CLOUDY    51  46  83 N5        29.87R
WINK           CLOUDY    55  47  74 E5        29.84F
$$

FAR WEST/SOUTHWEST MOUNTAINS/TRANS PECOS

CITY           SKY/WX    TMP DP  RH WIND       PRES   REMARKS
ALPINE         CLOUDY    50  45  81 CALM      29.96F
DRYDEN           N/A     55  50  83 E5        29.85F
EL PASO        CLOUDY    54  46  74 S13       29.86S
FORT STOCKTON  CLOUDY    53  48  83 E5        29.87R
GUADALUPE PASS NOT AVBL
MARFA          CLOUDY    54  45  71 N5        29.93S
PECOS          CLOUDY    51  46  84 CALM      29.86R
$$

DALLAS/FORT WORTH METROPLEX

CITY           SKY/WX    TMP DP  RH WIND       PRES   REMARKS
DFW AIRPORT    CLOUDY    52  51  97 CALM      29.87S FOG
FTW MEACHAM    CLOUDY    53  51  93 CALM      29.86F FOG
DAL-EXECUTIVE  CLOUDY    52  52 100 CALM      29.87S FOG
GRAND PRAIRIE  CLOUDY    51  51 100 CALM      29.89R
ADDISON        CLOUDY    53  53 100 CALM      29.89S FOG
MESQUITE       CLOUDY    50  49  97 CALM      29.88F
LANCASTER      CLOUDY    50  48  94 CALM      29.89S FOG
$$

NORTH CENTRAL TEXAS

CITY           SKY/WX    TMP DP  RH WIND       PRES   REMARKS
SHRMAN/DENISON FOG       48  48 100 CALM      29.89F VSB 1/4
GAINESVILLE    FOG       47  47  99 CALM      29.90F VSB 1/2
BRIDGEPORT     FOG       51  51 100 CALM      29.89S VSB 1
DENTON         FOG       49  49 100 NE5       29.87F VSB 1/2
WAXAHACHIE     CLOUDY    54  54 100 NE3       29.88S FOG
GRANBURY       CLOUDY    52  50  94 CALM      29.89R FOG
$$

WESTERN NORTH TEXAS

CITY           SKY/WX    TMP DP  RH WIND       PRES   REMARKS
WICHITA FALLS  MOCLDY    48  46  93 E7        29.85F FOG
VERNON         MOCLDY    49  44  80 SE7       29.87R
BRECKENRIDGE   CLOUDY    53  51  94 CALM      29.85S FOG
COMANCHE       FOG       51  51 100 S3        29.87S VSB 1/4
$$

CENTRAL AND SOUTH CENTRAL TEXAS

CITY           SKY/WX    TMP DP  RH WIND       PRES   REMARKS
AUSTIN/BERGSTM CLOUDY    57  57 100 SE3       29.87F FOG
WACO           FOG       52  51  97 SE7       29.85S VSB 1
HILLSBORO      CLOUDY    58  57  96 SE5       29.86S FOG
TEMPLE         CLOUDY    55  52  88 S9        29.85S VSB 1/4
KILLEEN-GRAY   CLOUDY    60  60  97 S10       29.84S
FORT HOOD      CLOUDY    61  60  96 S10       29.84F
GEORGETOWN     CLOUDY    61  59  94 S7        29.86S
LAGO VISTA     CLOUDY    61  60  96 S8        29.87F FOG
SAN MARCOS     CLOUDY    57  55  94 SE3       29.88F VSB 1
NEW BRAUNFELS  FOG       58  57  97 CALM      29.87S VSB 1/2
RANDOLPH AFB   FOG       57  56  97 N3        29.87S VSB 3/4
SAN ANTONIO    DRZL/FOG  59  57  93 CALM      29.87F VSB 3/4
STINSON        CLOUDY    59  57  93 N3        29.86S FOG
PLEASANTON     NOT AVBL
LA GRANGE      MOCLDY    68  66  95 S7        29.87R
GIDDINGS       MOCLDY    62  62  97 CALM      29.92R FOG
$$

EAST TEXAS

CITY           SKY/WX    TMP DP  RH WIND       PRES   REMARKS
PARIS          CLOUDY    46  45  93 CALM      29.89F
CLARKSVILLE    NOT AVBL
TYLER          CLOUDY    60  58  92 CALM      29.89R FOG
LONGVIEW       CLOUDY    67  62  84 S12       29.87F
PALESTINE      CLOUDY    59  59 100 CALM      29.91S FOG
NACOGDOCHES    CLOUDY    66  63  88 S8        29.93R
$$

TEXAS HILL COUNTRY AND EDWARDS PLATEAU

CITY           SKY/WX    TMP DP  RH WIND       PRES   REMARKS
LLANO          CLOUDY    61  57  88 CALM      29.90S
HORSESHOE BAY  CLOUDY    61  59  93 S3        29.88R
KERRVILLE      CLOUDY    56  55  95 E3        29.88S FOG
FREDERICKSBRG  CLOUDY    56  55  96 S3        29.88S
ROCKSPRINGS    NOT AVBL
HONDO          CLOUDY    57  56  96 NE6       29.88S FOG
UVALDE         CLOUDY    56  56  99 E8        29.85F FOG
DEL RIO        CLOUDY    58  52  80 NE3       29.85R
$$

SOUTHEAST TEXAS

CITY           SKY/WX    TMP DP  RH WIND       PRES   REMARKS
COLLEGE STN    CLOUDY    66  64  93 S7        29.88F
CALDWELL       MOCLDY    64  64 100 SE6       29.91F
CROCKETT       MOCLDY    68  66  94 S8        29.93S
BRENHAM        MOCLDY    69  66  92 S7        29.89F
HUNTSVILLE     CLOUDY    66  63  90 S5        29.90S
CONROE         CLOUDY    66  64  93 S6        29.91S
HOUSTON BUSH   CLOUDY    69  66  90 S7        29.90R
HOUSTON HOBBY  CLOUDY    69  68  96 S10       29.90S
PERLAND        CLOUDY    70  68  93 S13       29.92S
WHARTON        CLOUDY    69  67  95 SE14      29.90S
$$

THE UPPER TEXAS COAST

CITY           SKY/WX    TMP DP  RH WIND       PRES   REMARKS
ORANGE         CLOUDY    68  67  98 SE6       29.95F
PORT ARTHUR    CLOUDY    69  67  93 S12       29.92F
GALVESTON      CLOUDY    64  64 100 SE10      29.93S FOG
ANGLETON       CLOUDY    69  69 100 S17       29.90S
BAY CITY       CLOUDY    71  71 100 SE12      29.89F FOG
$$

TEXAS COASTAL BEND, RIO GRANDE PLAINS DEEP SOUTH TEXAS

CITY           SKY/WX    TMP DP  RH WIND       PRES   REMARKS
VICTORIA       CLOUDY    68  67  96 SE8       29.88S
BEEVILLE       CLOUDY    67  67 100 S12G21    29.86S
ROCKPORT       FOG       65  64  97 SE8       29.86R VSB 1/4
PORT ARANSAS   FOG       64  64 100 SE9G18    29.85S VSB 1/2
PORT LAVACA    CLOUDY    63  62  99 CALM      29.88R FOG
CORPUS CHRISTI CLOUDY    68  67  96 SE16G26   29.84S FOG
KINGSVILLE NAS CLOUDY    67  67 100 SE15      29.83R FOG
COTULLA        CLOUDY    59  57  93 NE9       29.84S FOG
LAREDO         FOG       58  57  96 NE12      29.82F VSB 1/2
BROWNSVILLE    CLOUDY    70  68  93 SE18G29   29.82F
PORT ISABEL    CLOUDY    70  69  97 SE9       29.84R FOG
HEBBRONVILLE   CLOUDY   N/A N/A N/A E8        29.83S
MCALLEN        CLOUDY    69  66  90 SE10      29.83R
WESLACO        MOCLDY    67  65  91 SE8       29.82S
FALFURRIAS     CLEAR     68  65  92 SE9G16    29.82R
EDINBURG       PTCLDY    67  64  89 SE6       29.83S
$$



USA.gov is the U.S. government's official web portal to all federal, state and local government web resources and services.